Torna al catalogo

STARLINK-4548

AttivoComunicazioniVLEO
NORAD 53431·PAYLOAD·🇺🇸 United States

Lanciato Aug 10, 2022 da Cape Canaveral Space Force Station

Loading…

Prossimi Passaggi (prossime 24 ore)

TLE

AggiornatoSource: CelesTrak SupGP

Epoca: Sep 15, 2026, 01:20 UTC

1 53431C 22097AV  26258.05604167  .00033700  00000+0  96421-3 0  2583
2 53431  53.1578 319.1955 0001129  95.3067 284.9135 15.35381149    16

Traccia STARLINK-4548 in tempo reale con AllMySat

Download on the App Store